DW6169 Weather Reports


Display with metric or nautical units.
time (UTC)temp
F
wind
direction
speed
MPH
gust
MPH
rain 1hr
in
rain 24hr
in
rain mn
in
humidity
%
barometer
mb
20260507090559 71 0 0.0 0.0 0.00 0.00 0.00 81 1015.4
20260507090106 71 0 0.0 0.0 0.00 0.00 0.00 81 1015.5
20260507085559 71 0 0.0 0.0 0.00 0.00 0.00 81 1015.4
20260507085102 71 0 0.0 0.0 0.00 0.00 0.00 81 1015.4
20260507084602 71 0 0.0 0.0 0.00 0.00 0.00 81 1015.3
20260507084059 71 0 0.0 0.0 0.00 0.00 0.00 81 1015.3
20260507083557 71 0 0.0 0.0 0.00 0.00 0.00 81 1015.4
20260507083108 71 0 0.0 0.0 0.00 0.00 0.00 80 1015.3
20260507082557 72 0 0.0 0.0 0.00 0.00 0.00 80 1015.4
20260507082101 72 0 0.0 0.0 0.00 0.00 0.00 80 1015.3
20260507081601 72 0 0.0 0.0 0.00 0.00 0.00 80 1015.3
20260507081102 72 0 0.0 0.0 0.00 0.00 0.00 80 1015.3
20260507080559 72 0 0.0 0.0 0.00 0.00 0.00 79 1015.4
20260507080059 72 0 0.0 0.0 0.00 0.00 0.00 79 1015.5
20260507075559 72 0 0.0 0.0 0.00 0.00 0.00 79 1015.4
20260507075101 73 0 0.0 0.0 0.00 0.00 0.00 79 1015.4
20260507074601 73 0 0.0 0.0 0.00 0.00 0.00 79 1015.5
20260507074059 73 0 0.0 0.0 0.00 0.00 0.00 78 1015.6
20260507073559 73 0 0.0 0.0 0.00 0.00 0.00 78 1015.7
20260507073107 73 0 0.0 0.0 0.00 0.00 0.00 78 1015.7
20260507072559 73 0 0.0 0.0 0.00 0.00 0.00 78 1015.7
20260507072102 73 0 0.0 0.0 0.00 0.00 0.00 77 1015.6
20260507071600 73 0 0.0 0.0 0.00 0.00 0.00 77 1015.6
20260507071101 73 0 0.0 0.0 0.00 0.00 0.00 77 1015.7
20260507070601 74 0 0.0 0.0 0.00 0.00 0.00 77 1015.8
20260507070107 74 0 0.0 0.0 0.00 0.00 0.00 77 1015.8
20260507065603 74 0 0.0 1.0 0.00 0.00 0.00 77 1015.8
20260507065059 74 0 0.0 1.0 0.00 0.00 0.00 77 1015.8
20260507064559 74 0 0.0 1.0 0.00 0.00 0.00 76 1015.9
20260507064100 74 0 0.0 1.0 0.00 0.00 0.00 76 1016.0
20260507063600 74 0 0.0 1.0 0.00 0.00 0.00 76 1016.0
20260507063102 75 0 0.0 0.0 0.00 0.00 0.00 75 1016.1
20260507062559 75 0 0.0 0.0 0.00 0.00 0.00 75 1016.1
20260507062059 75 0 0.0 0.0 0.00 0.00 0.00 75 1016.1
20260507061601 75 0 0.0 0.0 0.00 0.00 0.00 75 1016.2
20260507061100 75 0 0.0 0.0 0.00 0.00 0.00 75 1016.2
20260507060600 75 0 0.0 0.0 0.00 0.00 0.00 75 1016.4
20260507060100 75 0 0.0 0.0 0.00 0.00 0.00 74 1016.4
20260507055601 75 0 0.0 0.0 0.00 0.00 0.00 74 1016.5
20260507055104 75 0 0.0 1.0 0.00 0.00 0.00 74 1016.5
20260507054601 75 0 0.0 1.0 0.00 0.00 0.00 74 1016.5
20260507054101 75 0 0.0 1.0 0.00 0.00 0.00 74 1016.5
20260507053601 75 0 0.0 1.0 0.00 0.00 0.00 74 1016.6
20260507053126 75 0 0.0 2.0 0.00 0.00 0.00 74 1016.6
20260507052600 75 0 0.0 2.0 0.00 0.00 0.00 74 1016.7
20260507052101 75 0 0.0 0.0 0.00 0.00 0.00 73 1016.7
20260507051601 75 0 0.0 0.0 0.00 0.00 0.00 73 1016.8
20260507051100 75 0 0.0 0.0 0.00 0.00 0.00 73 1016.9
20260507050559 75 0 0.0 0.0 0.00 0.00 0.00 73 1016.8
20260507050057 76 0 0.0 0.0 0.00 0.00 0.00 73 1016.9
20260507045600 76 0 0.0 0.0 0.00 0.00 0.00 73 1017.0
20260507045058 76 0 0.0 0.0 0.00 0.00 0.00 73 1016.9
20260507044628 76 0 0.0 0.0 0.00 0.00 0.00 73 1017.0
20260507044057 76 0 0.0 0.0 0.00 0.00 0.00 72 1016.9
20260507043600 76 0 0.0 0.0 0.00 0.00 0.00 72 1017.0
20260507043058 76 0 0.0 1.0 0.00 0.00 0.00 72 1017.1
20260507042601 76 0 0.0 1.0 0.00 0.00 0.00 72 1017.1
20260507042057 76 0 0.0 1.0 0.00 0.00 0.00 72 1017.2
20260507041559 76 0 0.0 2.0 0.00 0.00 0.00 72 1017.2
20260507041100 77 0 0.0 2.0 0.00 0.00 0.00 71 1017.3
20260507040601 77 0 0.0 4.0 0.00 0.00 0.00 71 1017.2
20260507040106 77 0 0.0 4.0 0.00 0.00 0.00 71 1017.2
20260507035559 77 100 0.0 0.0 0.00 0.00 0.00 71 1017.2
20260507035100 77 0 0.0 0.0 0.00 0.00 0.00 71 1017.2
20260507034604 77 0 0.0 0.0 0.00 0.00 0.00 71 1017.4
20260507034059 77 0 0.0 1.0 0.00 0.00 0.00 71 1017.4
20260507033559 77 0 0.0 4.0 0.00 0.00 0.00 71 1017.4
20260507033122 77 0 0.0 4.0 0.00 0.00 0.00 70 1017.4
20260507032600 77 0 0.0 4.0 0.00 0.00 0.00 70 1017.7
20260507032059 77 0 0.0 3.0 0.00 0.00 0.00 70 1017.6
20260507031603 77 0 0.0 4.0 0.00 0.00 0.00 71 1017.5
20260507031057 77 0 0.0 4.0 0.00 0.00 0.00 71 1017.4
20260507030559 77 72 0.0 1.0 0.00 0.00 0.00 71 1017.5
20260507030110 77 0 0.0 4.0 0.00 0.00 0.00 71 1017.5
20260507025558 77 0 0.0 4.0 0.00 0.00 0.00 71 1017.4
20260507025101 77 75 0.0 3.0 0.00 0.00 0.00 71 1017.4
20260507024613 77 0 0.0 3.0 0.00 0.00 0.00 71 1017.3
20260507024059 78 0 0.0 3.0 0.00 0.00 0.00 71 1017.3
20260507023601 78 0 0.0 3.0 0.00 0.00 0.00 70 1017.3
20260507023103 78 0 1.0 3.0 0.00 0.00 0.00 70 1017.2
20260507022602 78 0 0.0 0.0 0.00 0.00 0.00 70 1017.3
20260507022059 78 0 0.0 0.0 0.00 0.00 0.00 70 1017.4
20260507021600 78 0 0.0 1.0 0.00 0.00 0.00 70 1017.3
20260507021104 78 0 0.0 2.0 0.00 0.00 0.00 69 1017.4
20260507020559 78 0 0.0 2.0 0.00 0.00 0.00 69 1017.4
20260507015559 78 0 0.0 4.0 0.00 0.00 0.00 69 1017.3
20260507015102 78 0 0.0 3.0 0.00 0.00 0.00 69 1017.3
20260507014605 78 0 0.0 1.0 0.00 0.00 0.00 69 1017.2
20260507014101 79 0 0.0 2.0 0.00 0.00 0.00 69 1017.3
20260507013602 79 0 0.0 3.0 0.00 0.00 0.00 69 1017.3
20260507013104 79 84 0.0 4.0 0.00 0.00 0.00 68 1017.3
20260507012600 79 0 0.0 4.0 0.00 0.00 0.00 68 1017.3
20260507012059 79 0 1.0 4.0 0.00 0.00 0.00 68 1017.2
20260507011600 79 0 0.0 4.0 0.00 0.00 0.00 69 1017.3
20260507011100 79 0 0.0 4.0 0.00 0.00 0.00 68 1017.3
20260507010559 79 0 0.0 4.0 0.00 0.00 0.00 68 1017.3
20260507010059 79 0 0.0 4.0 0.00 0.00 0.00 68 1017.4
20260507005601 79 0 0.0 4.0 0.00 0.00 0.00 68 1017.3
20260507005058 79 81 1.0 6.0 0.00 0.00 0.00 68 1017.3
20260507004600 79 72 2.0 7.0 0.00 0.00 0.00 68 1017.3
20260507004100 80 103 2.0 7.0 0.00 0.00 0.00 68 1017.3
20260507003559 80 0 2.0 7.0 0.00 0.00 0.00 68 1017.2
20260507003106 80 53 0.0 7.0 0.00 0.00 0.00 68 1017.3
20260507002559 80 102 3.0 7.0 0.00 0.00 0.00 67 1017.1
20260507002101 80 64 1.0 6.0 0.00 0.00 0.00 67 1017.2
20260507001610 80 34 2.0 6.0 0.00 0.00 0.00 67 1017.2
20260507001102 80 113 1.0 7.0 0.00 0.00 0.00 67 1017.3
20260507000601 80 80 1.0 7.0 0.00 0.00 0.00 67 1017.2
20260507000101 80 92 1.0 7.0 0.00 0.00 0.00 66 1017.2
20260506235559 80 57 2.0 7.0 0.00 0.00 0.00 65 1017.2
20260506235100 80 94 2.0 7.0 0.00 0.00 0.00 66 1017.1
20260506234606 80 101 1.0 7.0 0.00 0.00 0.00 65 1017.1
20260506234100 81 101 1.0 8.0 0.00 0.00 0.00 65 1017.0
20260506233558 81 115 1.0 8.0 0.00 0.00 0.00 65 1017.0
20260506233059 81 91 3.0 10.0 0.00 0.00 0.00 64 1016.9
20260506232600 81 64 3.0 10.0 0.00 0.00 0.00 63 1017.0
20260506232100 81 119 2.0 8.0 0.00 0.00 0.00 64 1016.7
20260506231600 81 92 2.0 8.0 0.00 0.00 0.00 64 1016.8
20260506231059 81 128 3.0 8.0 0.00 0.00 0.00 64 1016.9
20260506230558 81 109 2.0 10.0 0.00 0.00 0.00 64 1016.8
20260506230107 82 107 1.0 10.0 0.00 0.00 0.00 64 1016.8
20260506225601 82 116 3.0 10.0 0.00 0.00 0.00 65 1016.8
20260506225059 82 67 5.0 10.0 0.00 0.00 0.00 66 1016.8
20260506224610 82 101 3.0 9.0 0.00 0.00 0.00 67 1016.8
20260506224058 82 55 2.0 10.0 0.00 0.00 0.00 69 1016.8
20260506223558 81 67 3.0 10.0 0.00 0.00 0.00 69 1016.7
20260506223107 82 129 3.0 11.0 0.00 0.00 0.00 71 1016.7
20260506222559 82 119 4.0 11.0 0.00 0.00 0.00 72 1016.7
20260506222100 82 92 3.0 10.0 0.00 0.00 0.00 72 1016.6
20260506221606 82 63 3.0 10.0 0.00 0.00 0.00 72 1016.5
20260506221058 82 69 3.0 9.0 0.00 0.00 0.00 72 1016.4
20260506220558 82 126 3.0 9.0 0.00 0.00 0.00 73 1016.4
20260506215559 82 71 3.0 9.0 0.00 0.00 0.00 73 1016.3
20260506215058 82 107 4.0 10.0 0.00 0.00 0.00 73 1016.4
20260506214559 82 51 4.0 10.0 0.00 0.00 0.00 73 1016.3
20260506214058 82 102 5.0 12.0 0.00 0.00 0.00 72 1016.4
20260506213558 82 36 5.0 12.0 0.00 0.00 0.00 72 1016.5
20260506213104 83 114 4.0 9.0 0.00 0.00 0.00 72 1016.5
20260506212559 83 91 4.0 9.0 0.00 0.00 0.00 72 1016.4
20260506212101 83 74 2.0 12.0 0.00 0.00 0.00 73 1016.4
20260506211559 83 79 5.0 12.0 0.00 0.00 0.00 72 1016.2
20260506211059 83 89 5.0 12.0 0.00 0.00 0.00 72 1016.2
20260506210602 84 41 4.0 10.0 0.00 0.00 0.00 71 1016.1
20260506205558 84 42 2.0 9.0 0.00 0.00 0.00 71 1016.0
20260506205058 84 54 4.0 9.0 0.00 0.00 0.00 71 1016.1
20260506204600 84 91 5.0 9.0 0.00 0.00 0.00 70 1016.2
20260506204101 85 127 3.0 9.0 0.00 0.00 0.00 70 1016.1
20260506203558 85 95 2.0 10.0 0.00 0.00 0.00 70 1016.1
20260506203058 85 87 2.0 10.0 0.00 0.00 0.00 71 1016.4
20260506202558 84 125 2.0 10.0 0.00 0.00 0.00 71 1016.4
20260506202058 84 105 4.0 10.0 0.00 0.00 0.00 70 1016.5
20260506201600 84 115 2.0 11.0 0.00 0.00 0.00 72 1016.3
20260506201057 84 26 4.0 11.0 0.00 0.00 0.00 72 1016.3
20260506200558 84 46 5.0 10.0 0.00 0.00 0.00 71 1016.4
20260506200105 85 71 4.0 12.0 0.00 0.00 0.00 70 1016.5
20260506195559 85 114 5.0 12.0 0.00 0.00 0.00 68 1016.4
20260506195059 86 93 2.0 9.0 0.00 0.00 0.00 69 1016.5
20260506194601 85 90 4.0 9.0 0.00 0.00 0.00 67 1016.6
20260506194059 86 84 4.0 8.0 0.00 0.00 0.00 66 1016.7
20260506193603 86 116 1.0 9.0 0.00 0.00 0.00 67 1016.8
20260506193058 86 133 2.0 9.0 0.00 0.00 0.00 65 1016.7
20260506192559 86 0 4.0 10.0 0.00 0.00 0.00 64 1016.8
20260506192057 86 125 3.0 10.0 0.00 0.00 0.00 68 1016.9
20260506191600 86 98 2.0 9.0 0.00 0.00 0.00 66 1017.0
20260506191057 86 70 1.0 9.0 0.00 0.00 0.00 67 1017.0
20260506190557 85 142 1.0 9.0 0.00 0.00 0.00 67 1016.9
20260506185559 86 98 3.0 9.0 0.00 0.00 0.00 68 1017.1
20260506185059 86 65 3.0 9.0 0.00 0.00 0.00 68 1017.1
20260506184601 85 88 3.0 9.0 0.00 0.00 0.00 68 1017.1
20260506184059 85 44 3.0 9.0 0.00 0.00 0.00 68 1017.1
20260506183601 85 117 4.0 10.0 0.00 0.00 0.00 68 1017.2
20260506183100 85 40 3.0 10.0 0.00 0.00 0.00 67 1017.3
20260506182600 85 32 4.0 9.0 0.00 0.00 0.00 66 1017.2
20260506182100 86 86 3.0 9.0 0.00 0.00 0.00 68 1017.2
20260506181604 86 80 2.0 7.0 0.00 0.00 0.00 67 1017.3
20260506181100 86 111 4.0 9.0 0.00 0.00 0.00 67 1017.3
20260506180604 86 120 2.0 9.0 0.00 0.00 0.00 67 1017.3
20260506180058 86 171 3.0 10.0 0.00 0.00 0.00 67 1017.4
20260506175600 86 98 4.0 11.0 0.00 0.00 0.00 66 1017.4
20260506175100 87 148 1.0 11.0 0.00 0.00 0.00 66 1017.5
20260506174600 86 126 3.0 11.0 0.00 0.00 0.00 66 1017.7
20260506174059 86 146 2.0 10.0 0.00 0.00 0.00 67 1017.8
20260506173559 85 85 3.0 9.0 0.00 0.00 0.00 68 1017.9
20260506173130 85 105 3.0 11.0 0.00 0.00 0.00 68 1017.9
20260506172558 85 0 2.0 11.0 0.00 0.00 0.00 69 1018.0
20260506172104 86 81 1.0 9.0 0.00 0.00 0.00 67 1018.1
20260506171617 86 105 2.0 9.0 0.00 0.00 0.00 69 1018.1
20260506171100 85 86 3.0 10.0 0.00 0.00 0.00 69 1018.1
20260506170600 85 107 3.0 10.0 0.00 0.00 0.00 69 1018.1
20260506170103 85 92 4.0 9.0 0.00 0.00 0.00 69 1018.1
20260506165600 85 122 2.0 9.0 0.00 0.00 0.00 69 1018.2
20260506165100 86 76 1.0 9.0 0.00 0.00 0.00 68 1018.2
20260506164607 85 82 3.0 9.0 0.00 0.00 0.00 68 1018.3
20260506164100 86 65 3.0 6.0 0.00 0.00 0.00 68 1018.2
20260506163600 86 186 0.0 9.0 0.00 0.00 0.00 69 1018.2
20260506163107 85 136 3.0 9.0 0.00 0.00 0.00 69 1018.2
20260506162600 86 57 1.0 8.0 0.00 0.00 0.00 69 1018.3
20260506162059 85 82 2.0 8.0 0.00 0.00 0.00 69 1018.2
20260506161642 86 94 2.0 7.0 0.00 0.00 0.00 68 1018.3
20260506161059 86 132 1.0 8.0 0.00 0.00 0.00 69 1018.3
20260506160559 85 98 3.0 8.0 0.00 0.00 0.00 70 1018.3
20260506160111 85 100 0.0 9.0 0.00 0.00 0.00 71 1018.3
20260506155559 84 51 3.0 10.0 0.00 0.00 0.00 70 1018.3
20260506155101 85 97 2.0 10.0 0.00 0.00 0.00 69 1018.4
20260506154604 86 23 2.0 10.0 0.00 0.00 0.00 70 1018.4
20260506154101 86 112 2.0 9.0 0.00 0.00 0.00 69 1018.3
20260506153558 86 128 3.0 6.0 0.00 0.00 0.00 68 1018.3
20260506153103 86 117 1.0 6.0 0.00 0.00 0.00 69 1018.3
20260506152600 86 47 0.0 6.0 0.00 0.00 0.00 69 1018.3
20260506152100 86 88 3.0 6.0 0.00 0.00 0.00 70 1018.3
20260506151603 86 94 1.0 6.0 0.00 0.00 0.00 71 1018.2
20260506151059 86 144 0.0 6.0 0.00 0.00 0.00 71 1018.2
20260506150559 85 0 1.0 6.0 0.00 0.00 0.00 72 1018.2
20260506150058 84 106 1.0 6.0 0.00 0.00 0.00 72 1018.1
20260506145601 84 146 1.0 9.0 0.00 0.00 0.00 73 1018.1
20260506145059 83 113 1.0 9.0 0.00 0.00 0.00 73 1018.0
20260506144558 83 105 3.0 9.0 0.00 0.00 0.00 72 1017.9
20260506144059 83 92 3.0 8.0 0.00 0.00 0.00 72 1017.9
20260506143559 84 98 0.0 6.0 0.00 0.00 0.00 73 1017.9
20260506143059 83 0 1.0 6.0 0.00 0.00 0.00 73 1017.9
20260506142600 83 116 0.0 7.0 0.00 0.00 0.00 74 1017.8
20260506142103 82 77 4.0 7.0 0.00 0.00 0.00 72 1017.8
20260506141600 83 105 1.0 7.0 0.00 0.00 0.00 72 1017.8
20260506141100 83 74 2.0 7.0 0.00 0.00 0.00 73 1017.9
20260506140600 83 0 2.0 7.0 0.00 0.00 0.00 73 1017.9
20260506140100 83 115 0.0 8.0 0.00 0.00 0.00 74 1017.8
20260506135558 82 0 3.0 8.0 0.00 0.00 0.00 73 1017.8
20260506135059 82 0 1.0 8.0 0.00 0.00 0.00 74 1017.7
20260506134600 82 78 1.0 8.0 0.00 0.00 0.00 74 1017.7
20260506134059 82 0 2.0 8.0 0.00 0.00 0.00 74 1017.6
20260506133559 82 120 3.0 8.0 0.00 0.00 0.00 74 1017.6
20260506133100 82 0 0.0 8.0 0.00 0.00 0.00 75 1017.6
20260506132559 82 0 1.0 8.0 0.00 0.00 0.00 76 1017.5
20260506132101 81 0 0.0 5.0 0.00 0.00 0.00 76 1017.4
20260506131602 81 0 1.0 5.0 0.00 0.00 0.00 77 1017.5
20260506131057 81 146 0.0 4.0 0.00 0.00 0.00 78 1017.5
20260506130559 80 0 1.0 4.0 0.00 0.00 0.00 79 1017.4
20260506130140 80 80 0.0 6.0 0.00 0.00 0.00 80 1017.4
20260506125558 79 114 2.0 6.0 0.00 0.00 0.00 81 1017.4
20260506125058 79 122 0.0 6.0 0.00 0.00 0.00 82 1017.3
20260506124602 78 0 0.0 0.0 0.00 0.00 0.00 82 1017.4
20260506124102 78 0 0.0 0.0 0.00 0.00 0.00 82 1017.5
20260506123559 78 0 0.0 0.0 0.00 0.00 0.00 83 1017.4
20260506123100 77 0 0.0 0.0 0.00 0.00 0.00 83 1017.5
20260506122601 77 0 0.0 0.0 0.00 0.00 0.00 83 1017.4
20260506122059 77 0 0.0 0.0 0.00 0.00 0.00 84 1017.5
20260506121559 77 0 0.0 6.0 0.00 0.00 0.00 84 1017.4
20260506121101 76 0 0.0 6.0 0.00 0.00 0.00 84 1017.3
20260506120559 76 96 0.0 4.0 0.00 0.00 0.00 85 1017.3
20260506120108 76 76 0.0 4.0 0.00 0.00 0.00 86 1017.2
20260506115559 76 80 0.0 6.0 0.00 0.00 0.00 86 1017.0
20260506115100 75 0 0.0 6.0 0.00 0.00 0.00 86 1017.1
20260506114601 75 79 0.0 2.0 0.00 0.00 0.00 86 1017.0
20260506114059 75 0 0.0 2.0 0.00 0.00 0.00 86 1016.9
20260506113559 75 0 0.0 2.0 0.00 0.00 0.00 86 1016.8
20260506113059 75 0 0.0 0.0 0.00 0.00 0.00 86 1016.9
20260506112558 74 0 0.0 0.0 0.00 0.00 0.00 86 1016.8
20260506112059 74 0 0.0 0.0 0.00 0.00 0.00 85 1016.7
20260506111600 74 0 0.0 0.0 0.00 0.00 0.00 85 1016.8
20260506111101 73 0 0.0 0.0 0.00 0.00 0.00 85 1016.7
20260506110559 73 0 0.0 0.0 0.00 0.00 0.00 84 1016.6
20260506110106 73 0 0.0 0.0 0.00 0.00 0.00 84 1016.7
20260506105559 73 0 0.0 0.0 0.00 0.00 0.00 84 1016.5
20260506105101 73 0 0.0 0.0 0.00 0.00 0.00 83 1016.5
20260506104600 73 0 0.0 0.0 0.00 0.00 0.00 83 1016.5
20260506104059 73 0 0.0 0.0 0.00 0.00 0.00 83 1016.5
20260506103559 73 0 0.0 0.0 0.00 0.00 0.00 83 1016.4
20260506103100 74 0 0.0 0.0 0.00 0.00 0.00 83 1016.2
20260506102603 74 0 0.0 0.0 0.00 0.00 0.00 83 1016.3
20260506102101 74 0 0.0 0.0 0.00 0.00 0.00 83 1016.2
20260506101617 74 0 0.0 0.0 0.00 0.00 0.00 83 1016.0
20260506101056 74 0 0.0 0.0 0.00 0.00 0.00 83 1016.0
20260506100557 74 0 0.0 0.0 0.00 0.00 0.00 83 1016.0
20260506100120 74 0 0.0 0.0 0.00 0.00 0.00 83 1016.0
20260506095603 74 0 0.0 0.0 0.00 0.00 0.00 83 1016.1
20260506095103 74 0 0.0 0.0 0.00 0.00 0.00 83 1016.1
20260506094559 75 0 0.0 0.0 0.00 0.00 0.00 83 1016.1
20260506094101 75 0 0.0 0.0 0.00 0.00 0.00 83 1016.0
20260506093557 75 0 0.0 0.0 0.00 0.00 0.00 83 1015.9
20260506093103 75 0 0.0 0.0 0.00 0.00 0.00 82 1016.0
20260506092601 75 0 0.0 0.0 0.00 0.00 0.00 82 1015.9
20260506092057 75 0 0.0 0.0 0.00 0.00 0.00 82 1015.8
20260506091601 75 0 0.0 0.0 0.00 0.00 0.00 82 1015.8
20260506091057 75 0 0.0 0.0 0.00 0.00 0.00 82 1015.8